Location: Fours
(44.3167°N, 6.7000°E)
Time: 01:12:16
(UTC+00:00)

Cosmos 405 - Pass Details

Date: 16 October 2021
Orbit: 445 x 455 km, 81.3° (Epoch: 02 December)

Event Time Altitude Azimuth Distance (km) Brightness Sun altitude
Rises 17:33:06 0° 203° (SSW) 2,438 7.0 -9.0°
Reaches altitude 10° 17:35:13 10° 210° (SSW) 1,570 6.1 -9.3°
Maximum altitude 17:38:30 43° 283° (WNW) 642 4.3 -9.9°
Drops below altitude 10° 17:41:48 10° 357° (N) 1,579 5.7 -10.5°
Sets 17:43:57 0° 4° (N) 2,455 6.6 -10.9°
